リニア-ミュラー彗星

188P/LINEAR-Mueller (2007)

English version
Home page
Updated on March 17, 2010

---------------------------------------------------------------------

・ プロフィール

符号 188P/2007 J7
検出日 2007年5月13日、6月26日
検出光度 18.2等、18.1等
検出者 R. H. McNaught (Siding Spring), J. V. Scotti (Kitt Peak)

・ 写真集

・ 軌道要素

                    Epoch = 2007 Dec.  6.0 TT
     T = 2007 Dec. 16.1419 TT         Peri. =  26.4358
     e = 0.415879                     Node  = 359.1499  2000.0
     q = 2.552135 AU                  Incl. =  10.5462
       a =  4.369188 AU    n = 0.1079202    P =   9.133 years

・ 星図

・ 光度変化

        m1 = 12.0 + 5 logΔ + 6.3 log r

---------------------------------------------------------------------

軌道要素は、 IAUC 8853 に掲載されたものです。
星図は StellaNavigator Ver.2.0 for Windows (アストロアーツ 編著 / アスキー出版局刊) で作成したものです。
光度グラフはComet for Windowsで作成したものです。

---------------------------------------------------------------------

Copyright(C) Seiichi Yoshida (comet@aerith.net). All rights reserved.